Time,TemperatureF,DewpointF,PressureIn,WindDirection,WindDirectionDegrees,WindSpeedMPH,WindSpeedGustMPH,Humidity,HourlyPrecipIn,Conditions,Clouds,dailyrainin,SoftwareType,DateUTC
2013-02-02 00:01:00,28.8,14.0,30.22,SSE,165,1.0,8.0,55,0.00,,,0.00,weatherlink.com 1.10,2013-02-02 06:01:00,
2013-02-02 00:16:00,28.9,14.0,30.22,SW,228,4.0,5.0,54,0.00,,,0.00,weatherlink.com 1.10,2013-02-02 06:16:00,
2013-02-02 00:31:00,28.9,14.0,30.22,SSE,166,4.0,4.0,54,0.00,,,0.00,weatherlink.com 1.10,2013-02-02 06:31:00,
2013-02-02 00:46:00,28.9,14.0,30.21,SSE,167,0.0,4.0,54,0.00,,,0.00,weatherlink.com 1.10,2013-02-02 06:46:00,
2013-02-02 01:01:00,28.8,14.0,30.21,SE,141,1.0,5.0,54,0.00,,,0.00,weatherlink.com 1.10,2013-02-02 07:01:00,
2013-02-02 01:16:00,28.7,14.0,30.20,SSW,201,2.0,5.0,54,0.00,,,0.00,weatherlink.com 1.10,2013-02-02 07:16:00,
2013-02-02 01:34:00,28.9,14.0,30.19,SSE,163,2.0,5.0,55,0.00,,,0.00,weatherlink.com 1.10,2013-02-02 07:34:00,
2013-02-02 01:46:00,28.7,14.0,30.19,WNW,285,2.0,5.0,55,0.00,,,0.00,weatherlink.com 1.10,2013-02-02 07:46:00,
2013-02-02 02:01:00,28.4,14.0,30.18,SE,143,1.0,5.0,55,0.00,,,0.00,weatherlink.com 1.10,2013-02-02 08:01:00,
2013-02-02 02:16:00,28.1,14.0,30.17,SSE,155,0.0,4.0,56,0.00,,,0.00,weatherlink.com 1.10,2013-02-02 08:16:00,
2013-02-02 02:31:00,27.5,14.0,30.17,SSE,160,0.0,1.0,57,0.00,,,0.00,weatherlink.com 1.10,2013-02-02 08:31:00,
2013-02-02 02:46:00,26.9,14.0,30.17,SW,215,0.0,1.0,59,0.00,,,0.00,weatherlink.com 1.10,2013-02-02 08:46:00,
2013-02-02 03:01:00,26.7,15.0,30.17,SE,138,0.0,1.0,61,0.00,,,0.00,weatherlink.com 1.10,2013-02-02 09:01:00,
2013-02-02 03:16:00,27.2,15.0,30.16,West,271,2.0,2.0,61,0.00,,,0.00,weatherlink.com 1.10,2013-02-02 09:16:00,
2013-02-02 03:32:00,28.1,15.0,30.16,NW,309,1.0,2.0,59,0.00,,,0.00,weatherlink.com 1.10,2013-02-02 09:32:00,
2013-02-02 03:46:00,28.6,15.0,30.15,West,260,1.0,5.0,58,0.00,,,0.00,weatherlink.com 1.10,2013-02-02 09:46:00,
2013-02-02 04:01:00,28.5,15.0,30.14,SW,216,1.0,3.0,58,0.00,,,0.00,weatherlink.com 1.10,2013-02-02 10:01:00,
2013-02-02 04:17:00,28.2,15.0,30.13,SW,224,1.0,4.0,59,0.00,,,0.00,weatherlink.com 1.10,2013-02-02 10:17:00,
2013-02-02 04:32:00,28.4,16.0,30.13,West,266,1.0,5.0,60,0.00,,,0.00,weatherlink.com 1.10,2013-02-02 10:32:00,
2013-02-02 04:46:00,29.0,16.0,30.13,West,264,3.0,7.0,58,0.00,,,0.00,weatherlink.com 1.10,2013-02-02 10:46:00,
2013-02-02 05:02:00,29.4,17.0,30.13,SSW,212,4.0,5.0,59,0.00,,,0.00,weatherlink.com 1.10,2013-02-02 11:02:00,
2013-02-02 05:17:00,29.6,17.0,30.12,SW,215,2.0,7.0,59,0.00,,,0.00,weatherlink.com 1.10,2013-02-02 11:17:00,
2013-02-02 05:32:00,29.8,17.0,30.11,ESE,122,2.0,7.0,58,0.00,,,0.00,weatherlink.com 1.10,2013-02-02 11:32:00,
2013-02-02 05:47:00,30.0,17.0,30.11,SSW,211,4.0,6.0,59,0.00,,,0.00,weatherlink.com 1.10,2013-02-02 11:47:00,
2013-02-02 06:02:00,30.2,17.0,30.11,SSE,156,1.0,6.0,59,0.00,,,0.00,weatherlink.com 1.10,2013-02-02 12:02:00,
2013-02-02 06:17:00,30.4,18.0,30.11,SW,218,1.0,6.0,60,0.00,,,0.00,weatherlink.com 1.10,2013-02-02 12:17:00,
2013-02-02 06:32:00,30.5,18.0,30.11,SSW,200,1.0,5.0,60,0.00,,,0.00,weatherlink.com 1.10,2013-02-02 12:32:00,
2013-02-02 06:47:00,30.7,19.0,30.11,South,175,1.0,4.0,61,0.00,,,0.00,weatherlink.com 1.10,2013-02-02 12:47:00,
2013-02-02 07:02:00,30.8,19.0,30.10,SSW,212,1.0,3.0,61,0.00,,,0.00,weatherlink.com 1.10,2013-02-02 13:02:00,
2013-02-02 07:17:00,30.8,19.0,30.10,WSW,252,1.0,3.0,62,0.00,,,0.00,weatherlink.com 1.10,2013-02-02 13:17:00,
2013-02-02 07:32:00,30.9,19.0,30.10,SSW,208,1.0,3.0,62,0.00,,,0.00,weatherlink.com 1.10,2013-02-02 13:32:00,
2013-02-02 07:47:00,30.9,20.0,30.10,WSW,250,2.0,3.0,63,0.00,,,0.00,weatherlink.com 1.10,2013-02-02 13:47:00,
2013-02-02 08:02:00,31.1,20.0,30.10,WSW,248,1.0,5.0,64,0.00,,,0.00,weatherlink.com 1.10,2013-02-02 14:02:00,
2013-02-02 08:17:00,31.4,20.0,30.10,West,280,1.0,4.0,64,0.00,,,0.00,weatherlink.com 1.10,2013-02-02 14:17:00,
2013-02-02 08:32:00,31.8,21.0,30.11,WNW,288,2.0,5.0,64,0.00,,,0.00,weatherlink.com 1.10,2013-02-02 14:32:00,
2013-02-02 08:47:00,32.5,21.0,30.11,WSW,239,2.0,6.0,63,0.00,,,0.00,weatherlink.com 1.10,2013-02-02 14:47:00,
2013-02-02 09:03:00,33.6,21.0,30.10,NW,315,1.0,8.0,61,0.00,,,0.00,weatherlink.com 1.10,2013-02-02 15:03:00,
2013-02-02 09:17:00,34.0,22.0,30.11,WNW,294,5.0,11.0,61,0.00,,,0.00,weatherlink.com 1.10,2013-02-02 15:17:00,
2013-02-02 09:32:00,35.3,22.0,30.11,NW,309,7.0,11.0,59,0.00,,,0.00,weatherlink.com 1.10,2013-02-02 15:32:00,
2013-02-02 09:47:00,34.5,22.0,30.11,NNW,335,4.0,13.0,61,0.00,,,0.00,weatherlink.com 1.10,2013-02-02 15:47:00,
2013-02-02 10:02:00,34.2,22.0,30.12,NNW,343,9.0,15.0,62,0.00,,,0.00,weatherlink.com 1.10,2013-02-02 16:02:00,
2013-02-02 10:17:00,34.2,22.0,30.12,NW,318,3.0,15.0,62,0.00,,,0.00,weatherlink.com 1.10,2013-02-02 16:17:00,
2013-02-02 10:32:00,34.1,23.0,30.12,NNW,329,9.0,12.0,63,0.00,,,0.00,weatherlink.com 1.10,2013-02-02 16:32:00,
2013-02-02 10:47:00,35.1,23.0,30.12,NW,317,4.0,15.0,62,0.00,,,0.00,weatherlink.com 1.10,2013-02-02 16:47:00,
2013-02-02 11:03:00,35.4,23.0,30.13,NNW,347,5.0,17.0,61,0.00,,,0.00,weatherlink.com 1.10,2013-02-02 17:03:00,
2013-02-02 11:17:00,36.5,24.0,30.11,NNW,333,5.0,11.0,60,0.00,,,0.00,weatherlink.com 1.10,2013-02-02 17:17:00,
2013-02-02 11:32:00,37.6,25.0,30.11,North,350,4.0,10.0,60,0.00,,,0.00,weatherlink.com 1.10,2013-02-02 17:32:00,
2013-02-02 11:47:00,37.9,24.0,30.11,NNW,331,6.0,12.0,57,0.00,,,0.00,weatherlink.com 1.10,2013-02-02 17:47:00,
2013-02-02 12:04:00,38.6,23.0,30.11,North,8,10.0,17.0,53,0.00,,,0.00,weatherlink.com 1.10,2013-02-02 18:04:00,
2013-02-02 12:17:00,39.2,24.0,30.11,WSW,242,6.0,13.0,54,0.00,,,0.00,weatherlink.com 1.10,2013-02-02 18:17:00,
2013-02-02 12:32:00,39.3,25.0,30.10,NW,308,5.0,18.0,56,0.00,,,0.00,weatherlink.com 1.10,2013-02-02 18:32:00,
2013-02-02 12:47:00,39.9,26.0,30.09,NW,307,7.0,18.0,57,0.00,,,0.00,weatherlink.com 1.10,2013-02-02 18:47:00,
2013-02-02 13:02:00,40.0,25.0,30.10,WSW,255,3.0,15.0,56,0.00,,,0.00,weatherlink.com 1.10,2013-02-02 19:02:00,
2013-02-02 13:17:00,40.3,26.0,30.09,North,355,10.0,18.0,56,0.00,,,0.00,weatherlink.com 1.10,2013-02-02 19:17:00,
2013-02-02 13:33:00,40.0,26.0,30.09,North,349,5.0,15.0,57,0.00,,,0.00,weatherlink.com 1.10,2013-02-02 19:33:00,
2013-02-02 13:48:00,40.1,26.0,30.09,NNW,328,6.0,19.0,57,0.00,,,0.00,weatherlink.com 1.10,2013-02-02 19:48:00,
2013-02-02 14:03:00,40.1,26.0,30.09,NW,313,8.0,17.0,58,0.00,,,0.00,weatherlink.com 1.10,2013-02-02 20:03:00,
2013-02-02 14:18:00,39.2,26.0,30.09,NNW,332,7.0,19.0,59,0.00,,,0.00,weatherlink.com 1.10,2013-02-02 20:18:00,
2013-02-02 14:33:00,39.2,26.0,30.10,WSW,255,7.0,16.0,60,0.00,,,0.00,weatherlink.com 1.10,2013-02-02 20:33:00,
2013-02-02 14:48:00,38.3,26.0,30.10,West,272,4.0,15.0,62,0.00,,,0.00,weatherlink.com 1.10,2013-02-02 20:48:00,
2013-02-02 15:04:00,38.1,26.0,30.10,NNW,333,9.0,16.0,62,0.00,,,0.00,weatherlink.com 1.10,2013-02-02 21:04:00,
2013-02-02 15:18:00,37.6,26.0,30.11,WNW,293,4.0,15.0,64,0.00,,,0.00,weatherlink.com 1.10,2013-02-02 21:18:00,
2013-02-02 15:33:00,37.6,26.0,30.12,North,11,10.0,17.0,64,0.00,,,0.00,weatherlink.com 1.10,2013-02-02 21:33:00,
2013-02-02 15:48:00,37.8,27.0,30.12,NNW,340,4.0,13.0,65,0.00,,,0.00,weatherlink.com 1.10,2013-02-02 21:48:00,
2013-02-02 16:03:00,36.5,26.0,30.11,NNW,339,5.0,10.0,66,0.00,,,0.00,weatherlink.com 1.10,2013-02-02 22:03:00,
2013-02-02 16:18:00,36.0,25.0,30.12,NW,314,5.0,13.0,65,0.00,,,0.00,weatherlink.com 1.10,2013-02-02 22:18:00,
2013-02-02 16:33:00,36.6,25.0,30.12,NW,315,4.0,15.0,64,0.00,,,0.00,weatherlink.com 1.10,2013-02-02 22:33:00,
2013-02-02 16:48:00,35.5,25.0,30.13,NNW,333,5.0,18.0,65,0.00,,,0.00,weatherlink.com 1.10,2013-02-02 22:48:00,
2013-02-02 17:03:00,34.7,24.0,30.13,NNW,333,12.0,21.0,66,0.00,,,0.00,weatherlink.com 1.10,2013-02-02 23:03:00,
2013-02-02 17:18:00,34.3,24.0,30.14,WNW,302,8.0,17.0,66,0.00,,,0.00,weatherlink.com 1.10,2013-02-02 23:18:00,
2013-02-02 17:33:00,33.5,24.0,30.14,NNW,340,3.0,12.0,69,0.00,,,0.00,weatherlink.com 1.10,2013-02-02 23:33:00,
2013-02-02 17:48:00,32.2,24.0,30.15,NW,326,4.0,10.0,71,0.00,,,0.00,weatherlink.com 1.10,2013-02-02 23:48:00,
2013-02-02 18:03:00,31.5,23.0,30.15,NW,326,3.0,9.0,72,0.00,,,0.00,weatherlink.com 1.10,2013-02-03 00:03:00,
2013-02-02 18:19:00,31.3,24.0,30.14,NNE,29,0.0,5.0,73,0.00,,,0.00,weatherlink.com 1.10,2013-02-03 00:19:00,
2013-02-02 18:33:00,31.0,23.0,30.14,North,5,1.0,4.0,73,0.00,,,0.00,weatherlink.com 1.10,2013-02-03 00:33:00,
2013-02-02 18:48:00,30.5,23.0,30.14,NNE,24,2.0,4.0,73,0.00,,,0.00,weatherlink.com 1.10,2013-02-03 00:48:00,
2013-02-02 19:03:00,29.8,22.0,30.14,NNE,32,1.0,3.0,74,0.00,,,0.00,weatherlink.com 1.10,2013-02-03 01:03:00,
2013-02-02 19:18:00,29.6,23.0,30.15,North,352,0.0,1.0,75,0.00,,,0.00,weatherlink.com 1.10,2013-02-03 01:18:00,
2013-02-02 19:33:00,29.8,23.0,30.15,NNW,341,0.0,3.0,76,0.00,,,0.00,weatherlink.com 1.10,2013-02-03 01:33:00,
2013-02-02 19:48:00,29.7,23.0,30.15,NNW,343,1.0,3.0,75,0.00,,,0.00,weatherlink.com 1.10,2013-02-03 01:48:00,
2013-02-02 20:03:00,29.3,23.0,30.14,NNW,343,0.0,0.0,76,0.00,,,0.00,weatherlink.com 1.10,2013-02-03 02:03:00,
2013-02-02 20:18:00,29.3,23.0,30.13,NNW,343,0.0,0.0,77,0.00,,,0.00,weatherlink.com 1.10,2013-02-03 02:18:00,
2013-02-02 20:33:00,29.4,23.0,30.12,NNW,343,0.0,1.0,78,0.00,,,0.00,weatherlink.com 1.10,2013-02-03 02:33:00,
2013-02-02 20:48:00,29.4,23.0,30.11,ESE,102,0.0,0.0,77,0.00,,,0.00,weatherlink.com 1.10,2013-02-03 02:48:00,
2013-02-02 21:03:00,29.4,23.0,30.11,East,101,0.0,0.0,78,0.00,,,0.00,weatherlink.com 1.10,2013-02-03 03:03:00,
2013-02-02 21:18:00,29.5,23.0,30.11,East,101,0.0,0.0,78,0.00,,,0.00,weatherlink.com 1.10,2013-02-03 03:18:00,
2013-02-02 21:33:00,29.2,24.0,30.11,East,99,1.0,1.0,82,0.00,,,0.00,weatherlink.com 1.10,2013-02-03 03:33:00,
2013-02-02 21:48:00,28.2,25.0,30.10,East,91,2.0,2.0,87,0.00,,,0.00,weatherlink.com 1.10,2013-02-03 03:48:00,
2013-02-02 22:03:00,27.9,25.0,30.10,East,79,0.0,2.0,90,0.00,,,0.00,weatherlink.com 1.10,2013-02-03 04:03:00,
2013-02-02 22:18:00,27.9,26.0,30.10,NNE,32,0.0,1.0,92,0.00,,,0.00,weatherlink.com 1.10,2013-02-03 04:18:00,
2013-02-02 22:33:00,27.9,26.0,30.09,NE,34,0.0,0.0,92,0.00,,,0.00,weatherlink.com 1.10,2013-02-03 04:33:00,
2013-02-02 22:48:00,28.1,26.0,30.08,NNE,32,0.0,0.0,93,0.00,,,0.00,weatherlink.com 1.10,2013-02-03 04:48:00,
2013-02-02 23:03:00,28.2,27.0,30.08,NE,34,0.0,0.0,93,0.00,,,0.00,weatherlink.com 1.10,2013-02-03 05:03:00,
2013-02-02 23:18:00,28.3,27.0,30.07,NE,34,0.0,0.0,94,0.00,,,0.00,weatherlink.com 1.10,2013-02-03 05:18:00,
2013-02-02 23:33:00,28.3,27.0,30.06,SE,127,0.0,1.0,94,0.00,,,0.00,weatherlink.com 1.10,2013-02-03 05:33:00,
2013-02-02 23:48:00,28.2,27.0,30.05,SE,135,2.0,2.0,94,0.00,,,0.00,weatherlink.com 1.10,2013-02-03 05:48:00,